When you browse on this site, cookies collect data to enhance your experience and personalize the content and advertising you see.
Visit our Privacy Policy to learn more. By continuing to use the site, you agree to this use of cookies and data.
  • în România
  • Lista ţărilor
  • Pe 7 zile
  • Temperatura apei
  • Meteo pe hartă
  • Widget-uri
  • user-avatar
    Intrare

    Meteo pe oră la Pepel

    Astăzi, 31 Martie, Marţi

    Timp Temperatura Precipitaţii Vânt Presiune Umiditate
    00:00 +28°C° 0 mm 2 m/s 756 mmHg 73%
    01:00 +28°C° 0 mm 2 m/s 756 mmHg 74%
    02:00 +28°C° 0 mm 2 m/s 755 mmHg 75%
    03:00 +28°C° 0 mm 2 m/s 755 mmHg 76%
    04:00 +28°C° 0 mm 1 m/s 755 mmHg 76%
    05:00 +28°C° 0 mm 1 m/s 756 mmHg 77%
    06:00 +29°C° 0 mm 2 m/s 756 mmHg 74%
    07:00 +30°C° 0 mm 2 m/s 757 mmHg 71%
    08:00 +30°C° 0 mm 3 m/s 757 mmHg 69%
    09:00 +33°C° 0 mm 3 m/s 757 mmHg 61%
    10:00 +35°C° 0 mm 2 m/s 757 mmHg 54%
    11:00 +36°C° 0 mm 2 m/s 757 mmHg 47%
    12:00 +37°C° 0 mm 2 m/s 756 mmHg 44%
    13:00 +38°C° 0 mm 3 m/s 755 mmHg 41%
    14:00 +39°C° 0 mm 3 m/s 754 mmHg 38%
    15:00 +38°C° 0 mm 3 m/s 754 mmHg 40%
    16:00 +36°C° 0 mm 3 m/s 754 mmHg 43%
    17:00 +35°C° 0 mm 3 m/s 754 mmHg 45%
    18:00 +34°C° 0 mm 3 m/s 754 mmHg 51%
    19:00 +31°C° 0 mm 3 m/s 755 mmHg 56%
    20:00 +30°C° 0 mm 3 m/s 755 mmHg 62%
    21:00 +30°C° 0 mm 2 m/s 756 mmHg 65%
    22:00 +29°C° 0 mm 2 m/s 756 mmHg 69%
    23:00 +29°C° 0 mm 1 m/s 756 mmHg 72%

    Mâine, 1 Aprilie, Miercuri

    Timp Temperatura Precipitaţii Vânt Presiune Umiditate
    00:00 +29°C° 0 mm 1 m/s 756 mmHg 74%
    01:00 +28°C° 0 mm 1 m/s 756 mmHg 76%
    02:00 +28°C° 0 mm 1 m/s 756 mmHg 78%
    03:00 +28°C° 0 mm 1 m/s 756 mmHg 80%
    04:00 +28°C° 0 mm 2 m/s 757 mmHg 82%
    05:00 +28°C° 0 mm 2 m/s 757 mmHg 84%
    06:00 +29°C° 0 mm 2 m/s 758 mmHg 79%
    07:00 +30°C° 0 mm 2 m/s 758 mmHg 74%
    08:00 +31°C° 0 mm 2 m/s 758 mmHg 68%
    09:00 +34°C° 0 mm 2 m/s 758 mmHg 63%
    10:00 +35°C° 0 mm 2 m/s 758 mmHg 57%
    11:00 +37°C° 0 mm 2 m/s 757 mmHg 52%
    12:00 +37°C° 0 mm 2 m/s 757 mmHg 51%
    13:00 +37°C° 0 mm 2 m/s 756 mmHg 50%
    14:00 +37°C° 0 mm 3 m/s 755 mmHg 49%
    15:00 +36°C° 0 mm 3 m/s 755 mmHg 52%
    16:00 +35°C° 0 mm 3 m/s 755 mmHg 56%
    17:00 +34°C° 0 mm 4 m/s 755 mmHg 60%
    18:00 +33°C° 0 mm 3 m/s 755 mmHg 65%
    19:00 +31°C° 0 mm 3 m/s 756 mmHg 70%
    20:00 +30°C° 0 mm 2 m/s 757 mmHg 76%
    21:00 +29°C° 0 mm 2 m/s 757 mmHg 78%
    22:00 +29°C° 0 mm 2 m/s 757 mmHg 80%
    23:00 +29°C° 0 mm 1 m/s 758 mmHg 82%

    Poimâine, 2 Aprilie, Joi

    Timp Temperatura Precipitaţii Vânt Presiune Umiditate
    00:00 +29°C° 0.1 mm 1 m/s 757 mmHg 83%
    01:00 +28°C° 0.1 mm 1 m/s 757 mmHg 85%
    02:00 +28°C° 0.1 mm 1 m/s 757 mmHg 86%
    03:00 +28°C° 0 mm 1 m/s 757 mmHg 87%
    04:00 +28°C° 0 mm 1 m/s 757 mmHg 88%
    05:00 +28°C° 0 mm 1 m/s 757 mmHg 88%
    06:00 +29°C° 0 mm 1 m/s 757 mmHg 82%
    07:00 +30°C° 0 mm 1 m/s 758 mmHg 76%
    08:00 +32°C° 0 mm 1 m/s 759 mmHg 70%
    09:00 +34°C° 0 mm 2 m/s 758 mmHg 66%
    10:00 +35°C° 0 mm 2 m/s 758 mmHg 62%
    11:00 +36°C° 0 mm 2 m/s 758 mmHg 58%
    12:00 +36°C° 0 mm 2 m/s 757 mmHg 56%
    13:00 +37°C° 0 mm 3 m/s 756 mmHg 55%
    14:00 +37°C° 0 mm 3 m/s 756 mmHg 53%
    15:00 +36°C° 0 mm 3 m/s 756 mmHg 57%
    16:00 +35°C° 0 mm 3 m/s 755 mmHg 62%
    17:00 +33°C° 0 mm 4 m/s 755 mmHg 66%
    18:00 +31°C° 0 mm 3 m/s 756 mmHg 71%
    19:00 +30°C° 0 mm 3 m/s 756 mmHg 75%
    20:00 +29°C° 0 mm 2 m/s 757 mmHg 80%
    21:00 +29°C° 0 mm 2 m/s 757 mmHg 82%
    22:00 +29°C° 0 mm 2 m/s 757 mmHg 84%
    23:00 +29°C° 0 mm 1 m/s 757 mmHg 85%

    3 Aprilie, Vineri

    Timp Temperatura Precipitaţii Vânt Presiune Umiditate
    00:00 +28°C° 0 mm 1 m/s 757 mmHg 86%
    01:00 +28°C° 0 mm 1 m/s 756 mmHg 87%
    02:00 +28°C° 0 mm 1 m/s 756 mmHg 88%
    03:00 +28°C° 0 mm 1 m/s 756 mmHg 89%
    04:00 +28°C° 0 mm 1 m/s 756 mmHg 90%
    05:00 +28°C° 0 mm 1 m/s 756 mmHg 90%
    06:00 +29°C° 0 mm 1 m/s 756 mmHg 84%
    07:00 +30°C° 0 mm 2 m/s 757 mmHg 78%
    08:00 +31°C° 0 mm 2 m/s 757 mmHg 71%
    09:00 +32°C° 0 mm 2 m/s 757 mmHg 68%
    10:00 +34°C° 0 mm 3 m/s 757 mmHg 65%
    11:00 +35°C° 0 mm 3 m/s 757 mmHg 62%
    12:00 +35°C° 0 mm 3 m/s 756 mmHg 61%
    13:00 +35°C° 0 mm 3 m/s 755 mmHg 60%
    14:00 +35°C° 0 mm 3 m/s 755 mmHg 59%
    15:00 +35°C° 0 mm 3 m/s 754 mmHg 60%
    16:00 +34°C° 0 mm 3 m/s 754 mmHg 61%
    17:00 +34°C° 0 mm 3 m/s 754 mmHg 62%
    18:00 +33°C° 0 mm 3 m/s 755 mmHg 67%
    19:00 +31°C° 0 mm 3 m/s 755 mmHg 72%
    20:00 +30°C° 0 mm 3 m/s 756 mmHg 77%
    21:00 +29°C° 0 mm 2 m/s 756 mmHg 79%
    22:00 +29°C° 0 mm 2 m/s 756 mmHg 81%
    23:00 +29°C° 0 mm 1 m/s 757 mmHg 83%

    4 Aprilie, Sâmbătă

    Timp Temperatura Precipitaţii Vânt Presiune Umiditate
    00:00 +29°C° 0 mm 1 m/s 756 mmHg 84%
    01:00 +28°C° 0 mm 1 m/s 756 mmHg 85%
    02:00 +28°C° 0 mm 1 m/s 756 mmHg 87%
    03:00 +28°C° 0 mm 1 m/s 756 mmHg 88%
    04:00 +28°C° 0 mm 1 m/s 756 mmHg 88%
    05:00 +28°C° 0 mm 1 m/s 756 mmHg 89%
    06:00 +29°C° 0 mm 1 m/s 756 mmHg 83%
    07:00 +30°C° 0 mm 2 m/s 757 mmHg 78%
    08:00 +31°C° 0 mm 2 m/s 757 mmHg 72%
    09:00 +32°C° 0 mm 2 m/s 757 mmHg 69%
    10:00 +34°C° 0 mm 2 m/s 757 mmHg 66%
    11:00 +34°C° 0 mm 2 m/s 757 mmHg 62%
    12:00 +35°C° 0 mm 3 m/s 756 mmHg 59%
    13:00 +36°C° 0 mm 3 m/s 755 mmHg 56%
    14:00 +37°C° 0 mm 3 m/s 755 mmHg 52%
    15:00 +36°C° 0 mm 3 m/s 755 mmHg 56%
    16:00 +35°C° 0 mm 3 m/s 755 mmHg 60%
    17:00 +34°C° 0 mm 4 m/s 755 mmHg 63%
    18:00 +33°C° 0 mm 3 m/s 755 mmHg 69%
    19:00 +31°C° 0 mm 3 m/s 756 mmHg 74%
    20:00 +30°C° 0 mm 2 m/s 757 mmHg 80%
    21:00 +29°C° 0 mm 2 m/s 757 mmHg 81%
    22:00 +29°C° 0 mm 2 m/s 757 mmHg 83%
    23:00 +29°C° 0 mm 1 m/s 757 mmHg 85%

    5 Aprilie, Duminică

    Timp Temperatura Precipitaţii Vânt Presiune Umiditate
    00:00 +29°C° 0 mm 1 m/s 757 mmHg 86%
    01:00 +29°C° 0 mm 1 m/s 757 mmHg 87%
    02:00 +28°C° 0 mm 1 m/s 756 mmHg 87%
    03:00 +28°C° 0 mm 1 m/s 756 mmHg 88%
    04:00 +28°C° 0 mm 1 m/s 756 mmHg 88%
    05:00 +28°C° 0 mm 1 m/s 756 mmHg 89%
    06:00 +29°C° 0 mm 1 m/s 757 mmHg 82%
    07:00 +30°C° 0 mm 2 m/s 757 mmHg 76%
    08:00 +31°C° 0 mm 2 m/s 758 mmHg 70%
    09:00 +34°C° 0 mm 2 m/s 758 mmHg 64%
    10:00 +35°C° 0 mm 2 m/s 758 mmHg 59%
    11:00 +37°C° 0 mm 2 m/s 757 mmHg 54%
    12:00 +37°C° 0 mm 3 m/s 757 mmHg 52%
    13:00 +37°C° 0 mm 3 m/s 756 mmHg 51%
    14:00 +38°C° 0 mm 4 m/s 755 mmHg 50%
    15:00 +36°C° 0.1 mm 4 m/s 755 mmHg 54%
    16:00 +35°C° 0.1 mm 4 m/s 755 mmHg 59%
    17:00 +34°C° 0.1 mm 4 m/s 755 mmHg 63%
    18:00 +33°C° 0 mm 3 m/s 755 mmHg 68%
    19:00 +31°C° 0 mm 3 m/s 756 mmHg 72%
    20:00 +30°C° 0 mm 3 m/s 756 mmHg 77%
    21:00 +30°C° 0 mm 2 m/s 757 mmHg 79%
    22:00 +29°C° 0 mm 2 m/s 757 mmHg 81%
    23:00 +29°C° 0 mm 1 m/s 757 mmHg 82%
    Arată mai mult